Regional Weather Roundup
Issued by NWS Green Bay, WI

Home | Current Version | Previous Version | Graphics & Text | Print | Product List | Glossary Off
Versions: 1 2 3 4 5 6 7 8 9 10 11 12 13 14 15 16 17 18 19 20 21 22 23 24 25 26 27 28 29 30 31 32 33 34 35 36 37 38 39 40 41 42 43 44 45 46 47 48 49 50

000
ASUS43 KGRB 230759
RWRGRB

NORTH-CENTRAL AND NORTHEAST WISCONSIN REGIONAL WEATHER ROUNDUP
NATIONAL WEATHER SERVICE GREEN BAY WI
300 AM CDT WED APR 23 2014

WIZ005-009-010>012-018-019-230900-
NORTH CENTRAL WISCONSIN

CITY           SKY/WX    TMP DP  RH WIND       PRES   REMARKS
IRONWOOD       CLEAR     27  21  80 CALM      30.10F
MANITOWISH WTR NOT AVBL
ARBOR VITAE    NOT AVBL
EAGLE RIVER    NOT AVBL
LAND O LAKES   NOT AVBL
RHINELANDER    CLEAR     23  20  88 CALM      30.13S
PHILLIPS       NOT AVBL
ANTIGO         NOT AVBL
TOMAHAWK       NOT AVBL
MERRILL        NOT AVBL
$$

WIZ013-073-230900-
NORTHEAST WISCONSIN

CITY           SKY/WX    TMP DP  RH WIND       PRES   REMARKS
IRON MOUNTAIN  CLEAR     22  18  85 CALM      30.13S
MARINETTE      CLEAR     30  25  80 NW6       30.13R
$$

WIZ017-030-035>037-045-230900-
CENTRAL WISCONSIN

CITY           SKY/WX    TMP DP  RH WIND       PRES   REMARKS
MEDFORD        NOT AVBL
WAUSAU         CLEAR     30  26  85 CALM      30.13R
MOSINEE        NOT AVBL
MARSHFIELD     CLEAR     34  26  72 CALM      30.13R
WISC RAPIDS    CLEAR     29  25  85 CALM      30.15R
STEVENS POINT  NOT AVBL
WAUPACA        NOT AVBL
SHAWANO        NOT AVBL
CLINTONVILLE   NOT AVBL
$$

WIZ038-039-048-051-230900-
FOX VALLEY

CITY           SKY/WX    TMP DP  RH WIND       PRES   REMARKS
NWS GREEN BAY  CLEAR     30  27  88 N7        30.14S
APPLETON       NOT AVBL
OSHKOSH        CLEAR     35  26  69 CALM      30.13R
FOND DU LAC    CLEAR     33  27  78 CALM      30.13S
$$

WIZ022-050-052-230900-
EAST CENTRAL WISCONSIN

CITY           SKY/WX    TMP DP  RH WIND       PRES   REMARKS
STURGEON BAY   CLEAR     30  23  74 N5        30.13R
MANITOWOC      NOT AVBL
SHEBOYGAN      CLEAR     29  26  89 CALM      30.13R
$$

LMZ563-521-522-541>543-230900-
LAKESHORE

STATION/POSITION TIME  TEMP    WIND        PRES    VSBY  WAVE
                       AIR SEA DIR/SP/G                  HT/PER
                 (UTC) (F)     (DEG/KT/KT) (MB)    (MI)  (FT/S)
SHEBOYGAN LKSHOR 0700   37     360/  8/  9 1020.7F
KEWAUNEE LKSHORE 0700   34     340/  5/  8 1020.6F
NORTHPORT PIER   0700   31     300/  9/ 11 1020.0S
SISTER BAY LKSHO 0700   31      30/  8/ 11   N/A
MENOMINEE LKSHOR 0700   32     320/  8/  9 1020.8R
$$



USA.gov is the U.S. government's official web portal to all federal, state and local government web resources and services.